Location: El Cambur
(10.2851°N, 67.4340°W)
Time: 04:43:52
(UTC+00:00)

Hubble Space Telescope - Pass Details

Date: 13 June 2024
Orbit: 509 x 513 km, 28.5° (Epoch: 21 July)

Event Time Altitude Azimuth Distance (km) Brightness Sun altitude
Rises 23:47:29 0° 269° (W) 2,613 5.4 -13.2°
Reaches altitude 10° 23:50:42 10° 241° (WSW) 1,727 3.8 -13.9°
Maximum altitude 23:52:43 14° 211° (SSW) 1,518 3.1 -14.4°
Drops below altitude 10° 23:54:43 10° 180° (S) 1,727 3.1 -14.8°
Enters shadow 23:55:05 - 176° (S) 1,802 3.1 -14.9°
